GSTAR 4

导读

GSTAR 4是美国发射的人造卫星,于1990年11月20日8点发射升空,归属美国航天项目。作为一颗对地观测类卫星,它服役期间承担着空间对地监测、数据采集传输等任务,为美国获取地理、气象等领域遥感信息提供支撑,在地球科学研究、资源探测等领域发挥过作用,是美国九十年代航天布局中商业卫星体系的组成部分。

基本信息
目录编号:
20946
目录名称:
GSTAR 4
国际标识:
1990-100B
轨道中心:
EARTH
卫星名称:
GSTAR 4
卫星全名:
--
卫星状态:
在轨 (已飞行13020 天)
发射日期:
1990-11-20 UTC
国别 :
美国 (US)
星等 :
--
轨道信息
数据来源 国际轨道数据 AOE轨道数据
星历时间 2026-07-14T02:24:39+0800
12小时前
查看轨道信息
2026-07-13T09:00:00+0800
1天前
查看轨道信息
半长轴 42483.085km 42483.171km
偏心率 0.0007015 0.0007207
轨道倾角 14.294° 14.294°
近地点辐角 354.677° 354.731°
升交点赤经 9.898° 9.906°
平近点角 219.076° 320.079°
近地点 36075.146km 36074.416km
远地点 36134.75km 36135.652km
周期 1452.392分钟 1452.396分钟
每日圈数 0.991468 0.991465
详细信息
使用方式:
暂无
2D轨道图
3D轨道图
轨道高度分析图
轨道倾角分析图
轨道综合分析图
查看轨道综合分析图